Koksijde, Belgium

11:44 AM CEST on September 26, 2016 (GMT +0200)
Koksijde Air Base

Weather History for EBFN - May, 2013

Change the Weather History Date:

Friday, May 17, 2013

  Actual Average Record
Temperature  
Mean Temperature 48 °F -  
Max Temperature 49 °F 59 °F 80 °F (1997)
Min Temperature 47 °F 51 °F 37 °F (2012)
Degree Days  
Heating Degree Days 17    
Moisture  
Dew Point 44 °F    
Average Humidity 84    
Maximum Humidity 93    
Minimum Humidity 74    
Precipitation  
Precipitation 0.00 in - - ()
Sea Level Pressure  
Sea Level Pressure 29.67 in    
Wind  
Wind Speed 8 mph ()    
Max Wind Speed 13 mph    
Max Gust Speed -    
Visibility 6.5 miles    
Events Rain    
Averages and records for this station are not official NWS values.
T = Trace of Precipitation, MM = Missing Value Source: Averaged Metar Reports

Daily Weather History Graph

Daily Weather History Graph

Search for Another Location

Airport or City:

Trip Planner

Search our weather history database for the weather conditions in past years. The results will help you decide how hot, cold, wet, or windy it might be!

Date:

Astronomy

May. 17, 2013 Rise Set
Actual Time 5:56 AM CEST 9:36 PM CEST
Civil Twilight 5:15 AM CEST 10:17 PM CEST
Nautical Twilight 4:18 AM CEST 11:14 PM CEST
Astronomical Twilight 2:54 AM CEST 12:41 AM CEST
Moon 12:31 PM CEST (5/17) 2:04 AM CEST (5/17)
Length of Visible Light 17h 02m
Length of Day
15h 39m
Waxing Crescent, 42% of the Moon is Illuminated
May 17
Waxing Crescent
May 18
First Quarter
May 25
Full
May 31
Last Quarter
Jun 8
New

Hourly Weather History & Observations

Time (CEST) Temp. Windchill Dew Point Humidity Pressure Visibility Wind Dir Wind Speed Gust Speed Precip Events Conditions
12:25 AM 48.2 °F - 42.8 °F 82% 29.56 in 6.2 mi NNE 8.1 mph - N/A   Mostly Cloudy
12:55 AM 48.2 °F - 42.8 °F 82% 29.56 in 6.2 mi NNE 8.1 mph - N/A   Mostly Cloudy
1:25 AM 48.2 °F - 42.8 °F 82% 29.56 in 6.2 mi NNE 6.9 mph - N/A   Mostly Cloudy
1:55 AM 48.2 °F - 42.8 °F 82% 29.56 in 6.2 mi North 6.9 mph - N/A   Mostly Cloudy
2:00 AM 48 °F - 43 °F 77% 29.58 in 28 mi North 6.7 mph - -   Mostly Cloudy
2:25 AM 48.2 °F - 42.8 °F 82% 29.56 in 6.2 mi North 4.6 mph - N/A   Mostly Cloudy
2:55 AM 48.2 °F - 42.8 °F 82% 29.56 in 6.2 mi North 4.6 mph - N/A   Mostly Cloudy
3:25 AM 48.2 °F - 42.8 °F 82% 29.56 in 6.2 mi Variable 2.3 mph - N/A   Mostly Cloudy
4:25 AM 48.2 °F - 42.8 °F 82% 29.59 in 6.2 mi NNW 4.6 mph - N/A   Mostly Cloudy
4:55 AM 46.4 °F 42.9 °F 41.0 °F 81% 29.59 in 6.2 mi NNW 6.9 mph - N/A   Mostly Cloudy
5:00 AM 47 °F - 42 °F 76% 29.60 in 28 mi NNW 6.7 mph - -   Mostly Cloudy
5:25 AM 46.4 °F 42.9 °F 42.8 °F 87% 29.59 in 6.2 mi NNW 6.9 mph - N/A   Mostly Cloudy
5:55 AM 46.4 °F 42.9 °F 42.8 °F 87% 29.59 in 6.2 mi NNW 6.9 mph - N/A   Mostly Cloudy
6:25 AM 46.4 °F 41.9 °F 41.0 °F 81% 29.59 in 6.2 mi North 9.2 mph - N/A   Mostly Cloudy
6:55 AM 48.2 °F - 42.8 °F 82% 29.62 in 6.2 mi North 8.1 mph - N/A   Mostly Cloudy
7:25 AM 48.2 °F - 41.0 °F 76% 29.62 in 6.2 mi North 8.1 mph - N/A   Mostly Cloudy
7:55 AM 48.2 °F - 42.8 °F 82% 29.62 in 6.2 mi North 9.2 mph - N/A   Mostly Cloudy
8:00 AM 48 °F - 42 °F 74% 29.64 in 22 mi North 8.9 mph - -   Mostly Cloudy
8:25 AM 48.2 °F - 41.0 °F 76% 29.62 in 6.2 mi North 8.1 mph - N/A   Mostly Cloudy
8:55 AM 48.2 °F - 42.8 °F 82% 29.65 in 6.2 mi North 9.2 mph - N/A   Mostly Cloudy
9:25 AM 48.2 °F - 42.8 °F 82% 29.65 in 6.2 mi North 10.4 mph - N/A   Overcast
9:37 AM 48.2 °F - 42.8 °F 82% 29.65 in 6.2 mi North 9.2 mph - N/A   Mostly Cloudy
9:55 AM 48.2 °F - 44.6 °F 87% 29.65 in 6.2 mi North 10.4 mph - N/A   Mostly Cloudy
10:25 AM 48.2 °F - 44.6 °F 87% 29.65 in 5.0 mi North 9.2 mph - N/A   Mostly Cloudy
10:55 AM 48.2 °F - 44.6 °F 87% 29.65 in 6.2 mi North 10.4 mph - N/A Rain Light Rain
11:00 AM 48 °F - 45 °F 84% 29.68 in 9 mi North 8.9 mph - - Rain Light Rain
11:25 AM 48.2 °F - 44.6 °F 87% 29.68 in 6.2 mi North 11.5 mph - N/A   Mostly Cloudy
11:55 AM 48.2 °F - 42.8 °F 82% 29.68 in 6.2 mi North 11.5 mph - N/A   Mostly Cloudy
12:25 PM 50.0 °F - 44.6 °F 82% 29.68 in 6.2 mi North 11.5 mph - N/A   Mostly Cloudy
12:55 PM 48.2 °F - 44.6 °F 87% 29.68 in 6.2 mi North 10.4 mph - N/A   Mostly Cloudy
1:25 PM 48.2 °F - 44.6 °F 87% 29.68 in 6.2 mi North 10.4 mph - N/A   Mostly Cloudy
1:55 PM 48.2 °F - 44.6 °F 87% 29.71 in 6.2 mi North 10.4 mph - N/A   Mostly Cloudy
2:00 PM 49 °F - 45 °F 79% 29.72 in 19 mi North 11.2 mph - -   Partly Cloudy
2:25 PM 50.0 °F - 44.6 °F 82% 29.71 in 6.2 mi North 9.2 mph - N/A   Mostly Cloudy
2:55 PM 48.2 °F - 44.6 °F 87% 29.71 in 6.2 mi North 10.4 mph - N/A Rain Light Rain
3:25 PM 48.2 °F - 46.4 °F 93% 29.71 in 6.2 mi North 10.4 mph - N/A Rain Light Rain
3:55 PM 48.2 °F - 46.4 °F 93% 29.71 in 6.2 mi North 10.4 mph - N/A Rain Light Rain
4:25 PM 48.2 °F - 46.4 °F 93% 29.71 in 6.2 mi North 10.4 mph - N/A Rain Light Rain
4:55 PM 48.2 °F - 46.4 °F 93% 29.71 in 6.2 mi North 10.4 mph - N/A Rain Light Rain
5:00 PM 49 °F - 46 °F 84% 29.74 in 9 mi North 11.2 mph - - Rain Light Rain
5:25 PM 48.2 °F - 46.4 °F 93% 29.71 in 6.2 mi North 10.4 mph - N/A Rain Light Rain
5:55 PM 48.2 °F - 46.4 °F 93% 29.71 in 6.2 mi North 12.7 mph - N/A Rain Light Rain
6:25 PM 48.2 °F - 44.6 °F 87% 29.74 in 6.2 mi North 10.4 mph - N/A Rain Light Rain
6:55 PM 48.2 °F - 44.6 °F 87% 29.74 in 6.2 mi North 10.4 mph - N/A Rain Light Rain
7:25 PM 48.2 °F - 44.6 °F 87% 29.74 in 6.2 mi North 9.2 mph - N/A   Mostly Cloudy
7:55 PM 48.2 °F - 44.6 °F 87% 29.71 in 6.2 mi North 10.4 mph - N/A   Mostly Cloudy
8:00 PM 48 °F - 44 °F 83% 29.74 in 25 mi North 11.2 mph - -   Partly Cloudy
8:25 PM 48.2 °F - 44.6 °F 87% 29.74 in 6.2 mi North 11.5 mph - N/A   Mostly Cloudy
8:55 PM 48.2 °F - 44.6 °F 87% 29.74 in 6.2 mi North 10.4 mph - N/A   Mostly Cloudy
9:25 PM 48.2 °F - 42.8 °F 82% 29.74 in 6.2 mi North 9.2 mph - N/A   Mostly Cloudy
9:28 PM 48.2 °F - 42.8 °F 82% 29.77 in 6.2 mi NNW 10.4 mph - N/A   Mostly Cloudy
9:55 PM 48.2 °F - 42.8 °F 82% 29.77 in 6.2 mi North 8.1 mph - N/A   Mostly Cloudy
10:25 PM 48.2 °F - 44.6 °F 87% 29.77 in 6.2 mi NNW 8.1 mph - N/A   Overcast
10:55 PM 48.2 °F - 42.8 °F 82% 29.77 in 6.2 mi NNW 5.8 mph - N/A   Mostly Cloudy
11:00 PM 48 °F - 44 °F 80% 29.79 in 28 mi NNW 6.7 mph - -   Mostly Cloudy
11:25 PM 48.2 °F - 42.8 °F 82% 29.77 in 6.2 mi NNW 5.8 mph - N/A   Mostly Cloudy
11:31 PM 48.2 °F - 44.6 °F 87% 29.77 in 6.2 mi NW 8.1 mph - N/A   Mostly Cloudy
11:55 PM 48.2 °F - 44.6 °F 87% 29.77 in 6.2 mi NW 5.8 mph - N/A   Mostly Cloudy